STARLINK-1752, 46338

Orbit data source: Space-Track

STARLINK-1752, 46338 is a payload satellite owned by SpaceX/Seattle (US) in LEO that was launched on Thu, 03 Sep 2020 UTC via an FALCON 9 launch vehicle from the Air Force Eastern Test Range (AFETR). Payload-class satellites include a variety of spacecraft equipped with specific instruments for various scientific and technological missions. These include communications satellites like Starlink; space stations such as the ISS; scientific satellites like the Hubble; Earth observation satellites from companies like Planet Labs, Umbra, and HawkEye 360; GPS; miniature CubeSats for education and research; and military/defense satellites.

Loading next visibility...
Identifier
46338, 2020-062P
Orbit
LEO
Country
Flag of USUS
Related business
Manufacturer
SpaceX/Seattle
Mission
Operational Commercial Communications
Bus & Motor
STARLINK, Unknown motor
Mass
260 kg wet, ~248 kg dry
Launch date (UTC)
2020-09-03 (5 years ago)
Launch vehicle
FALCON 9
Launch site
Air Force Eastern Test Range (AFETR)
Object type
Payload
Rocket body
Debris
Shape & HBR
Box + 1 Pan, 4.4 m
Radar Cross Section
13.562 m², Large (>1 m²)

Expand to show TLE details & history
Last TLE update: 14 hours ago

TLE from 14 hours ago
0 STARLINK-1752
1 46338U 20062P   25260.78740675 -.00000414  00000-0 -88917-5 0  9992
2 46338  53.0545  72.8075 0001336  93.0830 267.0312 15.06395626278240
Epoch: 2025-09-17T18:53Z
TLE epoch observation values (Epoch: 2025-09-17T18:53:51.943Z)
Latitude
Longitude
152.38273°
Altitude
548.152 km
Speed
7.589 km/s
True Right ascension
04h 51m 13s
True Declination
0° 00' 00"
Sunlit
Object was in daylight at epoch
Visualization orbit readout
Latitude
Unknown
Longitude
Unknown
Altitude
Unknown
Speed
Unknown
Apparent Right ascension
Unknown
Apparent Declination
Unknown
Sunlit
N/A
Visualization observer readout
Local Sidereal Time
01:32:13
Azimuth
Unknown
Elevation
Unknown
Doppler factor
Unknown
Orbital elements
Apogee altitude
548.421 km
Perigee altitude
546.57 km
Semi-major axis
6,925.633 km
Eccentricity
0.00013
Inclination
53.0545°
RAAN
72.8075°
Arg. of periapsis
93.083°
True anomaly
267.01591°
Mean anomaly
267.0312°
Eccentric anomaly
267.02356°
Mean motion
3.76577 °/min
Orbital period
95.6 mins
BSTAR
-0.0000088917
Loading maneuver chart data...
Computing Atmospheric mass density...
Loading historical data...
Loading historical data...
Loading historical data...
Loading historical data...
Loading historical data...
Loading historical data...
Loading historical data...

Documentation

Showing up to 5 results
|